STARLINK-11429, 62061

Orbit data source: Space-Track

STARLINK-11429, 62061 is a payload satellite owned by SpaceX/Seattle (US) in LEO that was launched on Sun, 24 Nov 2024 UTC via an FALCON 9 launch vehicle from the Air Force Western Test Range (AFWTR). Payload-class satellites include a variety of spacecraft equipped with specific instruments for various scientific and technological missions. These include communications satellites like Starlink; space stations such as the ISS; scientific satellites like the Hubble; Earth observation satellites from companies like Planet Labs, Umbra, and HawkEye 360; GPS; miniature CubeSats for education and research; and military/defense satellites.

Loading next visibility...
Identifier
62061, 2024-217E
Orbit
LEO
Country
Flag of USUS
Related business
Manufacturer
SpaceX/Seattle
Mission
Operational Commercial Communications
Bus & Motor
STARLINK V2MD, Unknown motor
Mass
960 kg wet, ~910 kg dry
Launch date (UTC)
2024-11-24 (1 year ago)
Launch vehicle
FALCON 9
Launch site
Air Force Western Test Range (AFWTR)
Object type
Payload
Rocket body
Debris
Shape & HBR
Box + 2 Pan, 18.1 m
Radar Cross Section
36.964 m², Large (>1 m²)

Expand to show TLE details & history
Last TLE update: 13 hours ago

TLE from 13 hours ago
0 STARLINK-11429
1 62061U 24217E   26095.11977177  .00179523  00000-0  14542-2 0  9998
2 62061  53.1574 301.0392 0000901  83.2658 276.8462 15.69719995 79329
Epoch: 2026-04-05T02:52Z
TLE epoch observation values (Epoch: 2026-04-05T02:52:28.280Z)
Latitude
-0.00008°
Longitude
64.49154°
Altitude
360.541 km
Speed
7.694 km/s
True Right ascension
20h 04m 09s
True Declination
0° 00' 00"
Sunlit
Object was in daylight at epoch
Visualization orbit readout
Latitude
Unknown
Longitude
Unknown
Altitude
Unknown
Speed
Unknown
Apparent Right ascension
Unknown
Apparent Declination
Unknown
Sunlit
N/A
Visualization observer readout
Local Sidereal Time
21:58:01
Azimuth
Unknown
Elevation
Unknown
Doppler factor
Unknown
Orbital elements
Apogee altitude
360.566 km
Perigee altitude
359.352 km
Semi-major axis
6,738.096 km
Eccentricity
0.00009
Inclination
53.1574°
RAAN
301.0392°
Arg. of periapsis
83.2658°
True anomaly
276.83595°
Mean anomaly
276.8462°
Eccentric anomaly
276.84107°
Mean motion
3.92408 °/min
Orbital period
91.74 mins
BSTAR
0.0014542
Loading maneuver chart data...
Computing Atmospheric mass density...
Loading historical data...
Loading historical data...
Loading historical data...
Loading historical data...
Loading historical data...
Loading historical data...
Loading historical data...

Documentation

Showing up to 5 results
|